Regional Weather Roundup
Issued by NWS

Home | Current Version | Previous Version | Text Only | Print | Product List | Glossary On
Versions: 1 2 3 4 5 6 7 8 9 10 11 12 13 14 15 16 17 18 19 20 21 22 23 24 25 26 27 28 29 30 31 32 33 34 35 36 37 38 39 40 41 42 43 44 45 46 47 48 49 50
000
ASUS43 KMKX 312200
RWRWI

WISCONSIN REGIONAL WEATHER ROUNDUP
NATIONAL WEATHER SERVICE MILWAUKEE/SULLIVAN WI
500 PM CDT FRI JUL 31 2015

NOTE: "FAIR" INDICATES FEW OR NO CLOUDS BELOW 12,000 FEET WITH NO
SIGNIFICANT WEATHER AND/OR OBSTRUCTIONS TO VISIBILITY.

WIZ001-002-006>008-014>016-023>028-312300-
NORTHWEST WISCONSIN

CITY           SKY/WX    TMP DP  RH WIND       PRES   REMARKS
SUPERIOR ARPT  MOSUNNY   80  52  38 W17G25    29.92S
ASHLAND        PTSUNNY   69  60  73 NE15      29.93S
HAYWARD        MOSUNNY   78  50  37 VRB3G21   29.95F
SIREN          MOSUNNY   78  47  33 NW15G21   29.97F
CUMBERLAND     MOSUNNY   75  48  38 NW13G20   29.98F
RICE LAKE      MOSUNNY   75  50  41 W10G18    29.99F
CHETEK         MOSUNNY   79  53  41 MISG      29.97F
LADYSMITH      PTSUNNY   76  52  43 W13G21    29.98F
EAU CLAIRE     NOT AVBL
MENOMONIE      MOSUNNY   80  47  30 W16       29.99F
NEW RICHMOND   SUNNY     78  49  35 NW12G22   30.01S
OSCEOLA        MOSUNNY   79  49  35 NW16      30.02F
$$

WIZ003>005-009-010-017-018-312300-
NORTH CENTRAL WISCONSIN

CITY           SKY/WX    TMP DP  RH WIND       PRES   REMARKS
MANITOWISH WTR RAIN      61  56  84 NE6G17    29.95R
ARBOR VITAE    MOSUNNY   74  53  48 NW9       29.93F THUNDER
WOODRUFF       MOSUNNY   74  53  48 NW9       29.93F THUNDER
RHINELANDER    CLOUDY    73  51  46 NW9       29.95R
EAGLE RIVER    MOSUNNY   74  48  39 W12G22    29.92F
LAND O LAKES   MOSUNNY   75  48  37 NW14G24   29.93S
PHILLIPS       CLOUDY    75  53  45 W8G23     29.95S
TOMAHAWK       MOSUNNY   72  51  46 W12G20    29.94F
MEDFORD        MOSUNNY   75  53  46 W15G26    29.96F
MERRILL        NOT AVBL
$$

WIZ029-030-035-036-043>047-312300-
CENTRAL WISCONSIN

CITY           SKY/WX    TMP DP  RH WIND       PRES   REMARKS
WAUSAU         MOSUNNY   79  48  33 W18       29.92F
MOSINEE        NOT AVBL
MARSHFIELD     PTSUNNY   79  50  36 NW17G26   29.96F
STEVENS POINT  MOSUNNY   76  52  41 W14G21    29.95S
WAUPACA        PTSUNNY   80  49  34 W9G23     29.92F HX  80
WAUTOMA        NOT AVBL
WISC RAPIDS    MOSUNNY   80  48  32 NW21G30   29.97S
CAMP DOUGLAS   NOT AVBL
$$

WIZ011>013-019>022-031-037>040-048>050-312300-
NORTHEAST WISCONSIN

CITY           SKY/WX    TMP DP  RH WIND       PRES   REMARKS
ANTIGO         MOSUNNY   76  51  40 NW12G22   29.93S
SHAWANO        PTSUNNY   79  49  34 NW12G20   29.89S
OCONTO         CLOUDY    83  53  34 W14G28    29.85F HX  82
STURGEON BAY   MOSUNNY   79  54  41 NW12G26   29.89R
GREEN BAY      SUNNY     81  54  39 W15       29.88S HX  81
MANITOWOC      NOT AVBL
APPLETON       PTSUNNY   81  46  30 W16G25    29.91F HX  80
CLINTONVILLE   SUNNY     81  46  30 W14G22    29.90S HX  80
OSHKOSH        MOSUNNY   80  52  37 NW18G24   29.91S HX  80
$$

WIZ032>034-041-042-053>061-312300-
SOUTHWEST WISCONSIN

CITY           SKY/WX    TMP DP  RH WIND       PRES   REMARKS
LA CROSSE      SUNNY     83  51  33 NW13      29.98F HX  81
SPARTA         SUNNY     81  44  27 NW16G30   29.99S HX  80
VIROQUA        SUNNY     78  52  39 NW13      30.02S
BOSCOBEL       SUNNY     85  53  33 W9        30.00S HX  83
PRAIRIE DU CHI SUNNY     84  43  23 NW20      30.00F HX  81
PLATTEVILLE    SUNNY     82  50  33 NW15G23   30.01S HX  80
$$

WIZ056-057-062-063-064-067-068-312300-
SOUTH CENTRAL WISCONSIN

CITY           SKY/WX    TMP DP  RH WIND       PRES   REMARKS
REEDSBURG      MOSUNNY   81  49  33 NW15G23   29.97S HX  80
BARABOO/DELLS  MOSUNNY   82  42  23 NW20G25   29.97S HX  80
LONE ROCK      NOT AVBL
MINERAL POINT  SUNNY     81  43  26 W14G23    30.01S
MADISON        MOSUNNY   80  49  33 NW12G26   29.96S
MIDDLETON      SUNNY     82  45  27 NW14G30   29.98S HX  80
WATERTOWN      PTSUNNY   81  53  37 W13G18    29.95S HX  80
MONROE         SUNNY     81  48  32 NW16G24   29.98F HX  80
JANESVILLE     SUNNY     84  46  26 NW17G23   29.96S HX  82
$$

WIZ051-052-058>065-066-070>072-312300-
SOUTHEAST WISCONSIN

CITY           SKY/WX    TMP DP  RH WIND       PRES   REMARKS
MILWAUKEE      MOSUNNY   82  47  29 NW18G28   29.93S HX  80
WAUKESHA       MOSUNNY   79  48  34 NW12      29.95S
MILWAUKEE/TIMM NOT AVBL
RACINE         MOSUNNY   83  49  30 W15G24    29.94S HX  81
BURLINGTON     SUNNY     81  46  29 NW15G23   29.95S HX  80
KENOSHA        SUNNY     81  50  33 W16G28    29.94S HX  80
FOND DU LAC    MOSUNNY   81  51  35 W15       29.92F HX  80
SHEBOYGAN      SUNNY     81  52  36 NW15G26   29.90S HX  80
WEST BEND      MOSUNNY   79  45  29 NW14G22   29.93S
JUNEAU         MOSUNNY   79  51  37 NW12G18   29.95S
$$

LSZ147-162-312300-
LAKE SUPERIOR

STATION/POSITION TIME  TEMP    WIND        PRES    WAVE
                       AIR SEA DIR/SP/G            HT/PER
                 (UTC) (F)     (DEG/KT/KT) (MB)    (FT/S)
W MID LAKE BUOY  2050   59 54  260/ 12/ 14 1011.5F   2/ 4
DEVILS ISLAND    2100   61     230/ 14/ 16 1012.8F
PORT WING        2100   72     280/  7/ 10 1012.9F
SAXON HARBOR     2109   67                 1014.6
$$

LMZ867-665-643>646-312300-
LAKE MICHIGAN

STATION/POSITION TIME  TEMP    WIND        PRES    WAVE
                       AIR SEA DIR/SP/G            HT/PER
                 (UTC) (F)     (DEG/KT/KT) (MB)    (FT/S)
CHAMBERS ISLAND  2100   73     320/ 11/ 15 1010.8S
S GREEN BAY BUOY 2100   72 72  280/ 10/ 12 1012.8
N MID LAKE BUOY  2050   71 69  270/ 16/ 17 1009.6F   1/ 4
NORTHPORT PIER   2100   74     290/  8/ 15 1010.5S
SISTER BAY       2114   76     330/ 17/ 18   N/A
ALGOMA LAKESHORE 2112          330/ 10/ 14   N/A
KEWAUNEE LAKESHO 2100   81     300/ 13/ 19 1010.9F
SHEBOYGAN LAKESH 2100   79     280/ 21/ 26 1012.3F
PORT WASHINGTON  2100   83     300/  7/ 16 1013.2F
ATWATER BUOY     2100   75 65  290/ 14/ 17 1014.5F
MILWAUKEE LAKESH 2100   80     290/ 15/ 23   N/A
KENOSHA   LAKESH 2100   82     290/ 16/ 21 1012.9S
$$

TC  - TEMPERATURE IN CELSIUS
VSB - VISIBILITY IN STATUTE MILES
WCI - WIND CHILL INDEX
HX  - HEAT INDEX



USA.gov is the U.S. government's official web portal to all federal, state and local government web resources and services.